Location: Unspecified
(0.0000°N, 0.0000°E)
Time: 07:01:07
(UTC+00:00)

Tiros 1 - All Passes

Search period start: 04 March 2015 00:00
Search period end: 14 March 2015 00:00
Orbit: 632 x 667 km, 48.4° (Epoch: 03 March)

Date Brightness Start Highest point End Pass type
(mag) Time Alt. Az. Time Alt. Az. Time Alt. Az.
04 Mar - 04:51:47 10° NNW 04:56:05 36° NE 05:00:24 10° ESE visible
04 Mar - 06:35:08 10° W 06:38:16 17° SW 06:41:14 10° S daylight
04 Mar - 17:04:39 10° SSW 17:09:21 69° SE 17:14:05 10° NE daylight
05 Mar - 03:40:17 10° NE 03:40:27 10° NE 03:40:57 10° NE visible
05 Mar - 05:18:08 10° NW 05:22:47 63° SW 05:27:24 10° SSE visible
05 Mar - 15:50:38 10° S 15:53:52 19° SE 15:57:16 10° E daylight
05 Mar - 17:31:45 10° WSW 17:36:03 34° NW 17:40:20 10° NNE daylight
06 Mar - 04:03:09 10° NNW 04:07:23 33° NE 04:11:37 10° ESE visible
06 Mar - 05:46:10 10° W 05:49:33 19° SW 05:52:45 10° S visible
06 Mar - 16:15:59 10° SSW 16:20:38 62° SE 16:25:20 10° NE daylight
06 Mar - 18:01:55 10° WNW 18:02:58 10° NW 18:03:41 10° NW daylight
07 Mar - 04:29:23 10° NW 04:34:05 70° SW 04:38:44 10° SSE visible
07 Mar - 15:02:10 10° S 15:05:08 17° SE 15:08:18 10° E daylight
07 Mar - 16:42:57 10° WSW 16:47:20 37° NW 16:51:42 10° NNE daylight
08 Mar - 03:14:31 10° N 03:18:40 30° NE 03:22:49 10° ESE visible
08 Mar - 04:57:15 10° W 05:00:50 21° SW 05:04:15 10° S visible
08 Mar - 15:27:19 10° SSW 15:31:55 56° SE 15:36:34 10° NE daylight
08 Mar - 17:12:28 10° WNW 17:14:13 11° NW 17:15:40 10° NNW daylight
09 Mar - 03:40:38 10° NW 03:45:21 77° SW 03:50:03 10° SE visible
09 Mar - 14:13:43 10° SSE 14:16:24 15° SE 14:19:17 10° E daylight
09 Mar - 15:54:10 10° WSW 15:58:36 41° NW 16:03:02 10° NNE daylight
10 Mar - 02:25:54 10° N 02:29:55 28° NE 02:33:59 10° ESE night (unlit)
10 Mar - 04:08:19 10° WNW 04:12:05 23° SW 04:15:43 10° S visible
10 Mar - 14:38:39 10° SSW 14:43:11 51° SE 14:47:47 10° NE daylight
10 Mar - 16:23:17 10° WNW 16:25:27 13° NW 16:27:23 10° NNW daylight
11 Mar - 02:51:52 10° NW 02:56:38 85° SW 03:01:21 10° SE night (unlit)
11 Mar - 13:25:18 10° SSE 13:27:39 14° SE 13:30:13 10° E daylight
11 Mar - 15:05:23 10° WSW 15:09:52 45° NW 15:14:22 10° NNE daylight
12 Mar - 01:37:16 10° N 01:41:10 26° NE 01:45:08 10° ESE night (unlit)
12 Mar - 03:19:25 10° WNW 03:23:20 25° SW 03:27:09 10° S night (unlit)
12 Mar - 13:50:00 10° SSW 13:54:27 46° SE 13:58:58 10° NE daylight
12 Mar - 15:34:11 10° W 15:36:42 14° NW 15:39:00 10° NNW daylight
13 Mar - 02:03:07 10° NW 02:07:53 87° NE 02:12:37 10° SE night (unlit)
13 Mar - 12:36:57 10° SSE 12:38:53 13° SE 12:41:05 10° ESE daylight
13 Mar - 14:16:36 10° SW 14:21:07 49° NW 14:25:40 10° NNE daylight
